CW8721 Weather Reports


time (UTC)temp
C
wind
direction
speed
KPH
gust
KPH
rain 1hr
cm
rain 24hr
cm
rain mn
cm
humidity
%
barometer
mb
20260509000051 25 284 11.3 19.3 0.00 0.00 0.00 19 1007.3
20260508235550 25 11 8.0 19.3 0.00 0.00 0.00 19 1007.3
20260508235049 25 299 11.3 20.9 0.00 0.00 0.00 19 1007.5
20260508234550 25 311 12.9 22.5 0.00 0.00 0.00 18 1007.5
20260508234051 25 319 11.3 22.5 0.00 0.00 0.00 19 1007.4
20260508233549 25 273 8.0 17.7 0.00 0.00 0.00 19 1007.5
20260508233049 25 9 4.8 19.3 0.00 0.00 0.00 19 1007.5
20260508232552 25 309 8.0 22.5 0.00 0.00 0.00 18 1007.4
20260508232049 25 319 12.9 22.5 0.00 0.00 0.00 19 1007.5
20260508231548 25 313 6.4 20.9 0.00 0.00 0.00 19 1007.5
20260508231048 25 260 9.7 20.9 0.00 0.00 0.00 19 1007.5
20260508230550 25 313 8.0 22.5 0.00 0.00 0.00 19 1007.6
20260508230047 25 304 14.5 22.5 0.00 0.00 0.00 18 1007.7
20260508225548 25 329 11.3 19.3 0.00 0.00 0.00 20 1007.8
20260508225048 25 313 6.4 19.3 0.00 0.00 0.00 18 1007.9
20260508224559 25 299 9.7 24.1 0.00 0.00 0.00 20 1007.9
20260508224044 25 331 16.1 24.1 0.00 0.00 0.00 18 1008.1
20260508223544 25 334 14.5 29.0 0.00 0.00 0.00 20 1008.0
20260508223051 25 5 16.1 29.0 0.00 0.00 0.00 19 1008.2
20260508222546 25 322 16.1 27.4 0.00 0.00 0.00 19 1008.3
20260508222043 25 323 14.5 22.5 0.00 0.00 0.00 20 1008.3
20260508221543 25 42 12.9 25.7 0.00 0.00 0.00 20 1008.3
20260508221044 25 19 11.3 25.7 0.00 0.00 0.00 20 1008.4
20260508220543 25 342 11.3 22.5 0.00 0.00 0.00 20 1008.4
20260508220050 25 313 8.0 27.4 0.00 0.00 0.00 21 1008.6
20260508215542 25 350 19.3 29.0 0.00 0.00 0.00 20 1008.7
20260508215042 25 310 19.3 29.0 0.00 0.00 0.00 20 1008.7
20260508214542 25 327 11.3 25.7 0.00 0.00 0.00 21 1008.8
20260508214041 24 321 12.9 24.1 0.00 0.00 0.00 22 1008.8
20260508213540 24 345 12.9 29.0 0.00 0.00 0.00 22 1008.8
20260508213043 24 321 19.3 29.0 0.00 0.00 0.00 21 1008.9
20260508212541 25 255 14.5 25.7 0.00 0.00 0.00 19 1008.9
20260508212040 24 17 14.5 27.4 0.00 0.00 0.00 20 1009.0
20260508211540 25 249 16.1 27.4 0.00 0.00 0.00 20 1009.1
20260508211040 24 307 16.1 32.2 0.00 0.00 0.00 20 1009.1
20260508210539 24 327 17.7 32.2 0.00 0.00 0.00 19 1009.1
20260508210043 25 34 12.9 25.7 0.00 0.00 0.00 20 1009.1
20260508205541 24 294 14.5 29.0 0.00 0.00 0.00 20 1009.2
20260508205038 24 296 17.7 25.7 0.00 0.00 0.00 19 1009.3
20260508204538 25 321 11.3 22.5 0.00 0.00 0.00 20 1009.5
20260508204037 25 323 14.5 29.0 0.00 0.00 0.00 20 1009.5
20260508203537 24 338 11.3 29.0 0.00 0.00 0.00 20 1009.6
20260508203042 25 12 11.3 20.9 0.00 0.00 0.00 20 1009.6
20260508202536 24 355 14.5 20.9 0.00 0.00 0.00 20 1009.6
20260508202036 24 318 16.1 27.4 0.00 0.00 0.00 19 1009.7
20260508201534 24 296 14.5 27.4 0.00 0.00 0.00 20 1009.7
20260508201034 23 295 11.3 29.0 0.00 0.00 0.00 22 1009.8
20260508200534 23 345 19.3 29.0 0.00 0.00 0.00 20 1009.8
20260508200036 23 318 12.9 22.5 0.00 0.00 0.00 23 1009.8
20260508195536 23 331 9.7 25.7 0.00 0.00 0.00 24 1009.8
20260508195033 23 331 16.1 27.4 0.00 0.00 0.00 21 1009.9
20260508194538 24 325 16.1 27.4 0.00 0.00 0.00 21 1009.8
20260508194031 23 302 16.1 25.7 0.00 0.00 0.00 22 1009.9
20260508193531 23 302 14.5 25.7 0.00 0.00 0.00 22 1009.9
20260508193031 23 319 17.7 25.7 0.00 0.00 0.00 22 1010.0
20260508192532 23 315 16.1 27.4 0.00 0.00 0.00 23 1010.0
20260508192029 23 319 19.3 27.4 0.00 0.00 0.00 23 1010.0
20260508191535 23 311 14.5 30.6 0.00 0.00 0.00 22 1010.0
20260508191028 23 301 16.1 30.6 0.00 0.00 0.00 22 1010.0
20260508190529 23 332 16.1 29.0 0.00 0.00 0.00 23 1010.1
20260508190027 23 306 14.5 29.0 0.00 0.00 0.00 23 1010.2
20260508185525 23 305 14.5 27.4 0.00 0.00 0.00 23 1010.3
20260508185025 22 308 16.1 27.4 0.00 0.00 0.00 24 1010.3
20260508184526 22 318 14.5 30.6 0.00 0.00 0.00 24 1010.3
20260508184023 22 329 16.1 29.0 0.00 0.00 0.00 24 1010.3
20260508183523 22 290 14.5 29.0 0.00 0.00 0.00 22 1010.4
20260508183028 22 309 17.7 29.0 0.00 0.00 0.00 24 1010.4
20260508182520 22 331 12.9 24.1 0.00 0.00 0.00 27 1010.4
20260508182019 22 305 12.9 24.1 0.00 0.00 0.00 27 1010.5
20260508181519 22 329 16.1 30.6 0.00 0.00 0.00 26 1010.6
20260508181018 22 340 14.5 30.6 0.00 0.00 0.00 27 1010.6
20260508180516 22 317 17.7 27.4 0.00 0.00 0.00 26 1010.6
20260508180020 22 327 16.1 30.6 0.00 0.00 0.00 26 1010.7
20260508175514 22 331 19.3 30.6 0.00 0.00 0.00 26 1010.6
20260508175014 22 318 17.7 27.4 0.00 0.00 0.00 26 1010.7
20260508174512 22 296 16.1 25.7 0.00 0.00 0.00 26 1010.7
20260508174020 21 277 14.5 29.0 0.00 0.00 0.00 26 1010.7
20260508173512 21 346 12.9 29.0 0.00 0.00 0.00 28 1010.7
20260508173012 21 321 17.7 30.6 0.00 0.00 0.00 26 1010.7
20260508172516 21 305 19.3 30.6 0.00 0.00 0.00 27 1010.8
20260508172011 21 306 14.5 29.0 0.00 0.00 0.00 29 1010.7
20260508171511 22 256 19.3 27.4 0.00 0.00 0.00 28 1010.7
20260508171007 21 309 12.9 27.4 0.00 0.00 0.00 30 1010.7
20260508170507 21 338 12.9 25.7 0.00 0.00 0.00 29 1010.7
20260508170009 21 329 17.7 25.7 0.00 0.00 0.00 30 1010.8
20260508165503 21 316 17.7 25.7 0.00 0.00 0.00 32 1010.7
20260508165003 21 275 14.5 22.5 0.00 0.00 0.00 32 1010.7
20260508164601 21 355 12.9 22.5 0.00 0.00 0.00 34 1010.7
20260508164059 21 351 14.5 27.4 0.00 0.00 0.00 34 1010.7
20260508163557 20 333 16.1 27.4 0.00 0.00 0.00 35 1010.6
20260508163056 21 321 16.1 24.1 0.00 0.00 0.00 34 1010.6
20260508162555 21 321 14.5 22.5 0.00 0.00 0.00 37 1010.5
20260508162053 20 5 12.9 19.3 0.00 0.00 0.00 36 1010.6
20260508161558 20 333 11.3 17.7 0.00 0.00 0.00 38 1010.5
20260508161051 20 24 4.8 16.1 0.00 0.00 0.00 40 1010.5
20260508160553 19 305 9.7 16.1 0.00 0.00 0.00 39 1010.5
20260508160049 19 289 9.7 16.1 0.00 0.00 0.00 39 1010.5
20260508155547 19 17 8.0 16.1 0.00 0.00 0.00 37 1010.6
20260508155046 19 13 3.2 14.5 0.00 0.00 0.00 38 1010.4
20260508154604 19 303 6.4 14.5 0.00 0.00 0.00 37 1010.6
20260508154042 19 323 6.4 14.5 0.00 0.00 0.00 38 1010.5
20260508153542 18 51 3.2 8.0 0.00 0.00 0.00 39 1010.6
20260508153041 18 336 4.8 8.0 0.00 0.00 0.00 41 1010.6
20260508152541 18 351 3.2 6.4 0.00 0.00 0.00 41 1010.6
20260508152037 17 26 0.0 4.8 0.00 0.00 0.00 44 1010.5
20260508151536 17 13 1.6 4.8 0.00 0.00 0.00 45 1010.5
20260508151035 17 36 1.6 4.8 0.00 0.00 0.00 45 1010.4
20260508150533 17 36 1.6 4.8 0.00 0.00 0.00 47 1010.4
20260508150051 16 49 0.0 3.2 0.00 0.00 0.00 46 1010.4
20260508145531 16 49 0.0 4.8 0.00 0.00 0.00 49 1010.3
20260508145030 16 49 1.6 4.8 0.00 0.00 0.00 50 1010.4
20260508144529 15 53 0.0 8.0 0.00 0.00 0.00 53 1010.3
20260508144028 15 52 3.2 8.0 0.00 0.00 0.00 52 1010.3
20260508143529 15 61 3.2 6.4 0.00 0.00 0.00 54 1010.2
20260508143025 15 53 3.2 6.4 0.00 0.00 0.00 55 1010.2
20260508142525 14 55 1.6 6.4 0.00 0.00 0.00 56 1010.1
20260508142025 13 55 0.0 6.4 0.00 0.00 0.00 58 1010.1
20260508141526 13 55 4.8 6.4 0.00 0.00 0.00 58 1010.1
20260508141024 13 57 3.2 4.8 0.00 0.00 0.00 60 1010.0
20260508140522 12 57 0.0 6.4 0.00 0.00 0.00 60 1009.9
20260508140026 12 57 4.8 6.4 0.00 0.00 0.00 61 1010.0
20260508135518 12 55 1.6 4.8 0.00 0.00 0.00 64 1010.0
20260508135018 11 55 0.0 4.8 0.00 0.00 0.00 65 1009.9
20260508134517 11 55 0.0 4.8 0.00 0.00 0.00 65 1009.9
20260508134016 11 56 1.6 4.8 0.00 0.00 0.00 67 1009.8
20260508133515 10 56 0.0 0.0 0.00 0.00 0.00 67 1009.7
20260508133014 10 56 0.0 0.0 0.00 0.00 0.00 67 1009.7
20260508132513 10 56 0.0 0.0 0.00 0.00 0.00 67 1009.7
20260508132012 10 56 0.0 0.0 0.00 0.00 0.00 67 1009.7
20260508131512 9 56 0.0 0.0 0.00 0.00 0.00 68 1009.7
20260508131015 9 360 0.0 0.0 0.00 0.00 0.00 68 1009.6
20260508130511 9 360 0.0 0.0 0.00 0.00 0.00 67 1009.4
20260508130009 9 61 0.0 0.0 0.00 0.00 0.00 65 1009.4
20260508125508 9 360 0.0 0.0 0.00 0.00 0.00 65 1009.3
20260508125006 9 360 0.0 0.0 0.00 0.00 0.00 64 1009.2
20260508124506 9 63 0.0 0.0 0.00 0.00 0.00 64 1009.1
20260508124006 10 360 0.0 0.0 0.00 0.00 0.00 65 1009.1
20260508123505 9 56 0.0 0.0 0.00 0.00 0.00 65 1009.0
20260508123005 9 56 0.0 0.0 0.00 0.00 0.00 65 1008.9
20260508122503 9 56 0.0 0.0 0.00 0.00 0.00 65 1008.9
20260508122002 9 56 0.0 0.0 0.00 0.00 0.00 64 1008.9
20260508121502 9 56 0.0 0.0 0.00 0.00 0.00 64 1008.8
20260508121002 9 56 0.0 0.0 0.00 0.00 0.00 64 1008.8
20260508120502 9 56 0.0 0.0 0.00 0.00 0.00 64 1008.7
20260508120002 10 56 0.0 0.0 0.00 0.00 0.00 62 1008.7
20260508115501 10 56 0.0 0.0 0.00 0.00 0.00 61 1008.7
20260508115100 10 57 0.0 0.0 0.00 0.00 0.00 59 1008.6
20260508114600 11 57 0.0 0.0 0.00 0.00 0.00 58 1008.7
20260508114100 11 56 0.0 0.0 0.00 0.00 0.00 60 1008.7
20260508113600 10 56 0.0 0.0 0.00 0.00 0.00 63 1008.6
20260508113100 10 56 0.0 0.0 0.00 0.00 0.00 62 1008.6
20260508112559 10 56 0.0 0.0 0.00 0.00 0.00 62 1008.6
20260508112102 10 57 0.0 0.0 0.00 0.00 0.00 61 1008.6
20260508111606 10 61 0.0 0.0 0.00 0.00 0.00 60 1008.7
20260508111059 10 360 0.0 0.0 0.00 0.00 0.00 61 1008.6
20260508110558 10 63 0.0 0.0 0.00 0.00 0.00 63 1008.6
20260508110110 10 58 0.0 0.0 0.00 0.00 0.00 66 1008.6
20260508105558 9 60 0.0 0.0 0.00 0.00 0.00 65 1008.6
20260508105056 9 60 0.0 1.6 0.00 0.00 0.00 65 1008.5
20260508104609 9 360 0.0 1.6 0.00 0.00 0.00 64 1008.6
20260508104056 9 59 0.0 0.0 0.00 0.00 0.00 64 1008.5
20260508103556 9 60 0.0 0.0 0.00 0.00 0.00 64 1008.5
20260508103056 9 62 0.0 0.0 0.00 0.00 0.00 63 1008.4
20260508102553 10 360 0.0 0.0 0.00 0.00 0.00 62 1008.3
20260508102052 10 59 0.0 0.0 0.00 0.00 0.00 61 1008.3
20260508101554 10 58 0.0 0.0 0.00 0.00 0.00 61 1008.2
20260508101052 10 57 0.0 0.0 0.00 0.00 0.00 62 1008.2
20260508100551 10 58 0.0 0.0 0.00 0.00 0.00 61 1008.2
20260508100051 10 58 0.0 0.0 0.00 0.00 0.00 61 1008.2
20260508095555 10 58 0.0 0.0 0.00 0.00 0.00 61 1008.2
20260508095050 10 58 0.0 0.0 0.00 0.00 0.00 61 1008.2
20260508094550 10 59 0.0 0.0 0.00 0.00 0.00 59 1008.2
20260508094047 10 360 0.0 0.0 0.00 0.00 0.00 58 1008.2
20260508093551 11 360 0.0 0.0 0.00 0.00 0.00 57 1008.2
20260508093049 11 360 0.0 0.0 0.00 0.00 0.00 57 1008.2
20260508092546 11 360 0.0 0.0 0.00 0.00 0.00 57 1008.0
20260508092046 10 58 0.0 0.0 0.00 0.00 0.00 57 1008.1
20260508091559 10 360 0.0 0.0 0.00 0.00 0.00 57 1008.0
20260508091044 11 57 0.0 0.0 0.00 0.00 0.00 56 1008.0
20260508090544 11 57 0.0 0.0 0.00 0.00 0.00 56 1007.9
20260508090044 11 57 0.0 0.0 0.00 0.00 0.00 55 1008.0
20260508085543 11 360 0.0 0.0 0.00 0.00 0.00 55 1008.0
20260508085046 11 360 0.0 0.0 0.00 0.00 0.00 55 1008.0
20260508084541 11 57 0.0 0.0 0.00 0.00 0.00 55 1008.0
20260508084041 11 360 0.0 0.0 0.00 0.00 0.00 54 1008.2
20260508083540 11 57 0.0 0.0 0.00 0.00 0.00 53 1008.1
20260508083048 12 60 0.0 3.2 0.00 0.00 0.00 52 1008.1
20260508082538 12 360 0.0 3.2 0.00 0.00 0.00 50 1008.2
20260508082038 12 304 0.0 0.0 0.00 0.00 0.00 48 1008.1
20260508081538 12 304 0.0 0.0 0.00 0.00 0.00 48 1008.2
20260508081038 12 360 0.0 0.0 0.00 0.00 0.00 49 1008.1
20260508080539 13 304 0.0 0.0 0.00 0.00 0.00 48 1008.1
20260508080059 13 303 0.0 0.0 0.00 0.00 0.00 48 1008.0
20260508075537 13 304 0.0 0.0 0.00 0.00 0.00 49 1008.1
20260508075037 12 303 0.0 0.0 0.00 0.00 0.00 51 1008.1
20260508074537 12 304 0.0 0.0 0.00 0.00 0.00 53 1008.1
20260508074035 12 304 0.0 0.0 0.00 0.00 0.00 53 1008.1
20260508073535 12 304 0.0 0.0 0.00 0.00 0.00 52 1008.1
20260508073040 12 304 0.0 0.0 0.00 0.00 0.00 52 1008.1
20260508072534 12 304 0.0 0.0 0.00 0.00 0.00 52 1008.0
20260508072034 12 304 0.0 0.0 0.00 0.00 0.00 52 1008.0
20260508071533 12 304 0.0 0.0 0.00 0.00 0.00 52 1007.8
20260508071031 12 304 0.0 0.0 0.00 0.00 0.00 50 1008.0
20260508070530 12 304 0.0 0.0 0.00 0.00 0.00 49 1007.8
20260508070029 13 295 0.0 0.0 0.00 0.00 0.00 47 1007.8
20260508065530 13 294 0.0 0.0 0.00 0.00 0.00 46 1007.8
20260508065028 14 294 0.0 0.0 0.00 0.00 0.00 45 1007.7
20260508064539 15 294 0.0 0.0 0.00 0.00 0.00 43 1007.7
20260508064026 15 294 0.0 0.0 0.00 0.00 0.00 40 1007.7
20260508063526 15 294 0.0 0.0 0.00 0.00 0.00 41 1007.7
20260508063028 15 294 0.0 0.0 0.00 0.00 0.00 43 1007.7
20260508062525 15 294 0.0 0.0 0.00 0.00 0.00 42 1007.8
20260508062025 13 294 0.0 0.0 0.00 0.00 0.00 45 1007.8
20260508061529 14 294 0.0 0.0 0.00 0.00 0.00 44 1007.7
20260508061022 14 294 0.0 0.0 0.00 0.00 0.00 44 1007.8
20260508060521 15 295 0.0 0.0 0.00 0.00 0.00 42 1007.7
20260508060019 16 5 0.0 0.0 0.00 0.00 0.00 39 1007.7
20260508055518 16 10 0.0 0.0 0.00 0.00 0.00 39 1007.7
20260508055018 16 10 0.0 0.0 0.00 0.00 0.00 39 1007.5
20260508054532 15 10 0.0 0.0 0.00 0.00 0.00 43 1007.5
20260508054018 15 10 0.0 0.0 0.00 0.00 0.00 44 1007.5
20260508053518 15 10 0.0 0.0 0.00 0.00 0.00 45 1007.6
20260508053019 15 10 0.0 0.0 0.00 0.00 0.00 46 1007.5
20260508052518 15 10 0.0 0.0 0.00 0.00 0.00 45 1007.4
20260508052017 15 21 0.0 0.0 0.00 0.00 0.00 45 1007.4
20260508051516 15 21 0.0 3.2 0.00 0.00 0.00 44 1007.4
20260508051018 16 19 0.0 1.6 0.00 0.00 0.00 41 1007.5
20260508050516 16 18 0.0 0.0 0.00 0.00 0.00 40 1007.3
20260508050019 16 18 0.0 0.0 0.00 0.00 0.00 40 1007.3
20260508045515 16 18 0.0 8.0 0.00 0.00 0.00 42 1007.4
20260508045015 15 18 0.0 9.7 0.00 0.00 0.00 43 1007.4
20260508044515 16 58 0.0 1.6 0.00 0.00 0.00 42 1007.5
20260508044015 16 67 0.0 3.2 0.00 0.00 0.00 43 1007.3
20260508043514 16 67 0.0 8.0 0.00 0.00 0.00 42 1007.5
20260508043014 16 58 0.0 9.7 0.00 0.00 0.00 40 1007.4
20260508042515 17 56 1.6 8.0 0.00 0.00 0.00 38 1007.3
20260508042014 17 197 0.0 1.6 0.00 0.00 0.00 36 1007.1
20260508041515 17 197 0.0 1.6 0.00 0.00 0.00 35 1007.0
20260508041014 18 197 0.0 1.6 0.00 0.00 0.00 34 1007.0
20260508040513 18 197 0.0 1.6 0.00 0.00 0.00 33 1006.9
20260508040033 18 202 0.0 1.6 0.00 0.00 0.00 32 1006.9
20260508035515 18 185 0.0 1.6 0.00 0.00 0.00 32 1006.8
20260508035019 18 177 0.0 3.2 0.00 0.00 0.00 32 1006.8
20260508034513 18 177 0.0 3.2 0.00 0.00 0.00 32 1006.8
20260508034011 18 163 0.0 3.2 0.00 0.00 0.00 32 1006.8
20260508033511 18 188 0.0 1.6 0.00 0.00 0.00 33 1006.8
20260508033011 18 188 0.0 1.6 0.00 0.00 0.00 33 1006.7
20260508032510 18 188 0.0 1.6 0.00 0.00 0.00 33 1006.8
20260508032010 18 188 0.0 1.6 0.00 0.00 0.00 33 1006.8
20260508031514 18 188 0.0 1.6 0.00 0.00 0.00 33 1007.0
20260508031009 19 360 0.0 1.6 0.00 0.00 0.00 33 1006.9
20260508030509 20 11 0.0 1.6 0.00 0.00 0.00 32 1006.8
20260508030010 20 11 0.0 0.0 0.00 0.00 0.00 32 1006.7
20260508025509 20 11 0.0 0.0 0.00 0.00 0.00 31 1006.8
20260508025011 20 5 0.0 0.0 0.00 0.00 0.00 31 1006.8
20260508024519 20 5 0.0 0.0 0.00 0.00 0.00 31 1006.8
20260508024009 20 5 0.0 0.0 0.00 0.00 0.00 30 1006.8
20260508023508 20 5 0.0 1.6 0.00 0.00 0.00 29 1006.6
20260508023010 21 5 0.0 4.8 0.00 0.00 0.00 29 1006.6
20260508022507 21 5 1.6 6.4 0.00 0.00 0.00 27 1006.7
20260508022008 22 355 3.2 6.4 0.00 0.00 0.00 26 1006.6
20260508021508 22 5 3.2 8.0 0.00 0.00 0.00 26 1006.7
20260508021007 22 345 3.2 8.0 0.00 0.00 0.00 25 1006.6
20260508020507 22 355 3.2 9.7 0.00 0.00 0.00 25 1006.6
20260508020007 22 318 6.4 9.7 0.00 0.00 0.00 25 1006.5
20260508015507 22 317 6.4 9.7 0.00 0.00 0.00 24 1006.6
20260508015006 22 313 4.8 9.7 0.00 0.00 0.00 24 1006.6
20260508014506 22 319 6.4 9.7 0.00 0.00 0.00 23 1006.6
20260508014007 22 313 6.4 9.7 0.00 0.00 0.00 23 1006.5
20260508013504 23 340 6.4 9.7 0.00 0.00 0.00 23 1006.6
20260508013005 23 316 6.4 12.9 0.00 0.00 0.00 23 1006.7
20260508012506 23 306 4.8 12.9 0.00 0.00 0.00 24 1006.8
20260508012004 23 309 4.8 12.9 0.00 0.00 0.00 23 1006.9
20260508011503 23 322 6.4 12.9 0.00 0.00 0.00 23 1006.8
20260508011004 23 301 6.4 12.9 0.00 0.00 0.00 23 1007.0
20260508010503 23 313 6.4 12.9 0.00 0.00 0.00 24 1006.9
20260508010003 23 5 3.2 8.0 0.00 0.00 0.00 24 1006.9
20260508005503 23 315 3.2 6.4 0.00 0.00 0.00 23 1006.9
20260508005002 23 300 1.6 9.7 0.00 0.00 0.00 24 1006.8
20260508004501 23 298 3.2 12.9 0.00 0.00 0.00 24 1006.9
20260508004101 23 297 6.4 12.9 0.00 0.00 0.00 23 1007.1
20260508003603 23 286 9.7 12.9 0.00 0.00 0.00 24 1007.2
20260508003100 23 319 6.4 9.7 0.00 0.00 0.00 24 1007.2
20260508002559 23 318 3.2 9.7 0.00 0.00 0.00 24 1007.3
20260508002059 23 307 6.4 12.9 0.00 0.00 0.00 24 1007.3
20260508001600 23 315 8.0 12.9 0.00 0.00 0.00 23 1007.5
20260508001103 23 321 3.2 9.7 0.00 0.00 0.00 24 1007.4
20260508000602 23 284 3.2 12.9 0.00 0.00 0.00 23 1007.5